Weather History for Lago Vista, TX

Change the Weather History Date:

Monday, April 29, 2013

  Actual Average (KATT) Record (KATT)
Temperature  
Mean Temperature 73 °F 72 °F  
Max Temperature 82 °F 83 °F 95 °F (1937)
Min Temperature 64 °F 62 °F 42 °F (1903)
Degree Days  
Heating Degree Days 0 0  
Month to date heating degree days 37  
Since 1 July heating degree days 1536  
Cooling Degree Days 8 8  
Month to date cooling degree days 157  
Year to date cooling degree days 245  
Growing Degree Days 23 (Base 50)    
Moisture  
Dew Point 62 °F    
Average Humidity 75    
Maximum Humidity 94    
Minimum Humidity 45    
Precipitation  
Precipitation 0.00 in 0.09 in 3.00 in (1905)
Month to date precipitation 1.99  
Year to date precipitation 8.99  
Snow  
Snow 0.00 in - - ()
Month to date snowfall  
Since 1 July snowfall  
Snow Depth -    
Sea Level Pressure  
Sea Level Pressure 29.90 in    
Wind  
Wind Speed 6 mph (SSE)    
Max Wind Speed 17 mph    
Max Gust Speed 31 mph    
Visibility 9 miles    
Events Rain , Thunderstorm    
T = Trace of Precipitation, MM = Missing Value Source: NWS Daily Summary

Daily Weather History Graph

Daily Weather History Graph

Search for Another Location

Airport:

Trip Planner

Search our weather history database for the weather conditions in past years. The results will help you decide how hot, cold, wet, or windy it might be!

Date:

Astronomy

Apr. 29, 2013 Rise Set
Actual Time 6:49 AM CDT 8:08 PM CDT
Civil Twilight 6:24 AM CDT 8:34 PM CDT
Nautical Twilight 5:54 AM CDT 9:04 PM CDT
Astronomical Twilight 5:22 AM CDT 9:36 PM CDT
Moon No Moon Rise 10:18 AM CDT (4/29)
Length of Visible Light 14h 09m
Length of Day
13h 19m
Waning Gibbous, 80% of the Moon is Illuminated
Apr 29
Waning Gibbous
May 2
Last Quarter
May 9
New
May 17
First Quarter
May 24
Full

Hourly Weather History & Observations

Time (CDT) Temp. Heat Index Dew Point Humidity Pressure Visibility Wind Dir Wind Speed Gust Speed Precip Events Conditions
12:15 AM 68.0 °F - 62.6 °F 83% 29.95 in 10.0 mi South 4.6 mph - N/A   Clear
12:35 AM 68.0 °F - 62.6 °F 83% 29.95 in 10.0 mi South 6.9 mph - N/A   Clear
12:55 AM 68.0 °F - 62.6 °F 83% 29.95 in 10.0 mi South 6.9 mph - N/A   Clear
1:15 AM 68.0 °F - 62.6 °F 83% 29.95 in 10.0 mi SSE 5.8 mph - N/A   Clear
1:35 AM 68.0 °F - 62.6 °F 83% 29.95 in 10.0 mi SSE 4.6 mph - N/A   Clear
1:55 AM 68.0 °F - 62.6 °F 83% 29.94 in 10.0 mi SSE 5.8 mph - N/A   Clear
2:15 AM 66.2 °F - 62.6 °F 88% 29.93 in 10.0 mi South 5.8 mph - N/A   Clear
2:35 AM 66.2 °F - 62.6 °F 88% 29.93 in 10.0 mi SSE 4.6 mph - N/A   Clear
2:55 AM 66.2 °F - 62.6 °F 88% 29.93 in 10.0 mi South 3.5 mph - N/A   Scattered Clouds
3:15 AM 66.2 °F - 62.6 °F 88% 29.92 in 7.0 mi South 3.5 mph - N/A   Mostly Cloudy
3:35 AM 68.0 °F - 64.4 °F 88% 29.91 in 7.0 mi South 9.2 mph - N/A   Overcast
4:15 AM 66.2 °F - 62.6 °F 88% 29.90 in 5.0 mi SSE 3.5 mph - N/A   Mostly Cloudy
4:35 AM 66.2 °F - 64.4 °F 94% 29.90 in 5.0 mi South 3.5 mph - N/A   Overcast
4:55 AM 66.2 °F - 64.4 °F 94% 29.90 in 7.0 mi SSW 5.8 mph - N/A   Overcast
5:15 AM 66.2 °F - 64.4 °F 94% 29.90 in 7.0 mi South 6.9 mph - N/A   Overcast
5:35 AM 66.2 °F - 64.4 °F 94% 29.90 in 7.0 mi South 5.8 mph - N/A   Overcast
5:55 AM 68.0 °F - 64.4 °F 88% 29.90 in 7.0 mi SSW 5.8 mph - N/A   Overcast
6:15 AM 68.0 °F - 64.4 °F 88% 29.91 in 7.0 mi SSW 4.6 mph - N/A   Overcast
6:35 AM 68.0 °F - 64.4 °F 88% 29.92 in 7.0 mi Calm Calm - N/A   Overcast
6:55 AM 66.2 °F - 62.6 °F 88% 29.93 in 7.0 mi Calm Calm - N/A   Overcast
7:15 AM 66.2 °F - 62.6 °F 88% 29.93 in 7.0 mi Calm Calm - N/A   Overcast
7:35 AM 66.2 °F - 62.6 °F 88% 29.94 in 5.0 mi South 3.5 mph - N/A   Mostly Cloudy
8:15 AM 68.0 °F - 64.4 °F 88% 29.94 in 7.0 mi South 4.6 mph - N/A   Overcast
8:35 AM 68.0 °F - 64.4 °F 88% 29.95 in 7.0 mi SSE 3.5 mph - N/A   Overcast
8:55 AM 68.0 °F - 64.4 °F 88% 29.94 in 10.0 mi Calm Calm - N/A   Mostly Cloudy
9:15 AM 69.8 °F - 64.4 °F 83% 29.95 in 10.0 mi South 8.1 mph - N/A   Mostly Cloudy
9:35 AM 69.8 °F - 62.6 °F 78% 29.94 in 10.0 mi South 3.5 mph - N/A   Overcast
9:55 AM 71.6 °F - 62.6 °F 73% 29.95 in 10.0 mi WSW 4.6 mph - N/A   Mostly Cloudy
10:15 AM 71.6 °F - 62.6 °F 73% 29.94 in 10.0 mi SW 5.8 mph - N/A   Scattered Clouds
10:35 AM 71.6 °F - 62.6 °F 73% 29.94 in 10.0 mi Calm Calm - N/A   Mostly Cloudy
10:55 AM 75.2 °F - 62.6 °F 65% 29.94 in 10.0 mi South 5.8 mph - N/A   Overcast
11:15 AM 73.4 °F - 62.6 °F 69% 29.94 in 10.0 mi Calm Calm - N/A   Overcast
11:35 AM 75.2 °F - 62.6 °F 65% 29.94 in 10.0 mi SE 9.2 mph - N/A   Overcast
11:55 AM 77.0 °F - 62.6 °F 61% 29.94 in 10.0 mi ESE 5.8 mph - N/A   Mostly Cloudy
12:15 PM 78.8 °F - 62.6 °F 57% 29.93 in 10.0 mi ESE 4.6 mph - N/A   Scattered Clouds
12:35 PM 77.0 °F - 60.8 °F 57% 29.93 in 10.0 mi ESE 3.5 mph - N/A   Scattered Clouds
12:55 PM 78.8 °F - 60.8 °F 54% 29.93 in 10.0 mi ESE 8.1 mph - N/A   Clear
1:15 PM 80.6 °F 81.5 °F 60.8 °F 51% 29.91 in 10.0 mi SE 4.6 mph - N/A   Scattered Clouds
1:35 PM 82.4 °F 82.5 °F 59.0 °F 45% 29.91 in 10.0 mi SSE 8.1 mph - N/A Thunderstorm Thunderstorm
1:55 PM 77.0 °F - 62.6 °F 61% 29.90 in 10.0 mi SSE 4.6 mph - N/A Rain , Thunderstorm Light Thunderstorms and Rain
2:15 PM 77.0 °F - 69.8 °F 78% 29.89 in 7.0 mi ESE 3.5 mph - N/A Rain , Thunderstorm Light Thunderstorms and Rain
2:35 PM 77.0 °F - 66.2 °F 69% 29.88 in 10.0 mi SSE 4.6 mph - N/A Rain Light Rain
2:55 PM 77.0 °F - 64.4 °F 65% 29.87 in 10.0 mi Calm Calm - N/A Rain , Thunderstorm Light Thunderstorms and Rain
3:15 PM 77.0 °F - 64.4 °F 65% 29.86 in 10.0 mi SE 5.8 mph - N/A   Mostly Cloudy
3:35 PM 78.8 °F - 62.6 °F 57% 29.85 in 10.0 mi SSE 8.1 mph 17.3 mph N/A   Scattered Clouds
3:55 PM 80.6 °F 81.5 °F 60.8 °F 51% 29.84 in 10.0 mi SSE 10.4 mph 16.1 mph N/A   Clear
4:15 PM 82.4 °F 82.9 °F 60.8 °F 48% 29.83 in 10.0 mi SE 8.1 mph 16.1 mph N/A   Clear
4:35 PM 78.8 °F - 59.0 °F 51% 29.83 in 10.0 mi SSE 8.1 mph - N/A   Clear
4:55 PM 80.6 °F 81.5 °F 60.8 °F 51% 29.82 in 10.0 mi SSE 6.9 mph 17.3 mph N/A   Clear
5:15 PM 80.6 °F 81.5 °F 60.8 °F 51% 29.81 in 10.0 mi SE 6.9 mph - N/A   Clear
5:35 PM 80.6 °F 81.5 °F 60.8 °F 51% 29.82 in 10.0 mi SE 8.1 mph - N/A   Scattered Clouds
5:55 PM 80.6 °F 81.1 °F 59.0 °F 48% 29.82 in 10.0 mi SSE 9.2 mph 19.6 mph N/A   Scattered Clouds
6:15 PM 80.6 °F 81.1 °F 59.0 °F 48% 29.82 in 10.0 mi ESE 10.4 mph 16.1 mph N/A Thunderstorm Scattered Clouds
6:35 PM 78.8 °F - 59.0 °F 51% 29.82 in 10.0 mi ESE 10.4 mph 19.6 mph N/A   Mostly Cloudy
6:55 PM 77.0 °F - 59.0 °F 54% 29.83 in 10.0 mi SE 17.3 mph 31.1 mph N/A   Overcast
7:15 PM 69.8 °F - 59.0 °F 68% 29.83 in 10.0 mi SSE 13.8 mph 20.7 mph N/A   Scattered Clouds
7:35 PM 68.0 °F - 59.0 °F 73% 29.84 in 10.0 mi SE 11.5 mph 20.7 mph N/A Thunderstorm Clear
7:55 PM 68.0 °F - 57.2 °F 68% 29.84 in 10.0 mi SE 10.4 mph 17.3 mph N/A   Clear
8:15 PM 66.2 °F - 59.0 °F 78% 29.85 in 10.0 mi SE 8.1 mph 17.3 mph N/A   Scattered Clouds
8:35 PM 66.2 °F - 59.0 °F 78% 29.85 in 10.0 mi ESE 9.2 mph 18.4 mph N/A   Scattered Clouds
8:55 PM 64.4 °F - 59.0 °F 83% 29.87 in 10.0 mi SSE 6.9 mph - N/A   Mostly Cloudy
9:15 PM 64.4 °F - 60.8 °F 88% 29.88 in 10.0 mi SE 5.8 mph - N/A   Scattered Clouds
9:35 PM 64.4 °F - 60.8 °F 88% 29.87 in 10.0 mi SSE 5.8 mph - N/A   Scattered Clouds
9:55 PM 64.4 °F - 60.8 °F 88% 29.88 in 10.0 mi South 3.5 mph - N/A   Scattered Clouds
10:15 PM 64.4 °F - 60.8 °F 88% 29.88 in 10.0 mi SSE 5.8 mph - N/A   Clear
10:35 PM 64.4 °F - 60.8 °F 88% 29.88 in 10.0 mi SE 5.8 mph - N/A   Mostly Cloudy
10:55 PM 64.4 °F - 60.8 °F 88% 29.88 in 10.0 mi SSE 9.2 mph - N/A   Overcast
11:15 PM 64.4 °F - 60.8 °F 88% 29.87 in 10.0 mi SSE 3.5 mph - N/A   Mostly Cloudy
11:35 PM 64.4 °F - 60.8 °F 88% 29.87 in 10.0 mi SSE 4.6 mph - N/A   Clear
11:55 PM 64.4 °F - 60.8 °F 88% 29.87 in 10.0 mi ESE 3.5 mph - N/A   Scattered Clouds